Regional Weather Roundup
Issued by NWS Sterling, VA

Home | Current Version | Previous Version | Text Only | Print | Product List | Glossary Off
Versions: 1 2 3 4 5 6 7 8 9 10 11 12 13 14 15 16 17 18 19 20 21 22 23 24 25 26 27 28 29 30 31 32 33 34 35 36 37 38 39 40 41 42 43 44 45 46 47 48 49 50

000
ASUS41 KLWX 240810
RWRLWX

REGIONAL WEATHER ROUNDUP
NATIONAL WEATHER SERVICE BALTIMORE MD/WASHINGTON DC
400 AM EDT SUN MAY 24 2015

Note: "FAIR" indicates few or no clouds below 12,000 feet
with no significant weather and/or obstructions to visibility.
 TC=TEMPERATURE CELSIUS

 * =Non NWS site. Station does not report precipitation (e.g. rain,
    snow, etc.), thunder, or fog.

DCZ001-MDZ009-015-VAZ040>042-051-053>054-240900-
WASHINGTON METRO

CITY           SKY/WX    TMP DP  RH WIND       PRES   REMARKS
WASHINGTON NAT PTCLDY    59  45  59 SW3       30.38S
DULLES         PTCLDY    51  46  83 SE5       30.37F
ANDREWS AFB    CLEAR     52  44  75 S5        30.37S
FT BELVOIR     CLEAR     50  47  90 CALM      30.38S
QUANTICO       PTCLDY    55  49  80 NW6       30.39S
COLLEGE PARK*  CLEAR     50  46  87 CALM      30.38S
LEESBURG*      CLEAR     50  48  93 CALM      30.38F
MANASSAS*        N/A    N/A N/A N/A MISG        N/A
GAITHERSBURG*  CLEAR     48  45  87 CALM      30.41F

$$

MDZ006>007-011-014-240900-
BALTIMORE METRO

CITY           SKY/WX    TMP DP  RH WIND       PRES   REMARKS
BWI AIRPORT    PTCLDY    48  44  86 CALM      30.37F
MD SCIENCE CTR   N/A     57  43  59 MISG      30.38F
MARTIN STATE   CLEAR     52  48  87 CALM      30.39F
ANNAPOLIS      CLEAR     56  44  64 CALM      30.37F
FORT MEADE*    CLEAR     45  43  93 CALM      30.40S

$$

MDZ012-015-019>023-240900-
MARYLAND EASTERN SHORE

CITY           SKY/WX    TMP DP  RH WIND       PRES   REMARKS
OCEAN CITY     CLEAR     48  45  89 CALM      30.41R
SALISBURY      CLEAR     45  43  93 E5        30.40S
BAY BRIDGE AP*   N/A    N/A N/A N/A S5        30.38S
EASTON*        CLEAR     54  54 100 CALM      30.42S

$$

MDZ017>025-240900-
SOUTHERN MARYLAND

CITY           SKY/WX    TMP DP  RH WIND       PRES   REMARKS
PATUXENT RIVER CLEAR     51  48  89 CALM      30.38F
ST INIGOES     CLEAR     60  52  74 S9        30.38S
LEONARDTOWN*   CLEAR     54  50  87 CALM      30.40S

$$

MDZ003>005-240900-
NORTH CENTRAL MARYLAND

CITY           SKY/WX    TMP DP  RH WIND       PRES   REMARKS
FREDERICK*     CLEAR     45  45 100 CALM      30.40F
HAGERSTOWN APT CLEAR     54  41  61 CALM      30.35F
WESTMINSTER*   PTCLDY    52  43  71 CALM      30.38S

$$

MDZ501>502-240900-
WESTERN MARYLAND

CITY           SKY/WX    TMP DP  RH WIND       PRES   REMARKS
OAKLAND*       CLEAR     54  36  50 S5        30.39S
CUMBERLAND*    CLEAR     45  43  93 CALM      30.41S

$$

VAZ025>031-240900-
SHENANDOAH VALLEY

CITY           SKY/WX    TMP DP  RH WIND       PRES   REMARKS
WINCHESTER*    CLEAR     50  43  76 CALM      30.36S
FRONT ROYAL*   FAIR      50  46  87 CALM      30.35S
LURAY*         FAIR      52  52 100 CALM      30.37S
NEW MARKET*    FAIR      48  47  96 CALM      30.37R
STAUNTON*      CLEAR     49  47  92 CALM      30.39S
WAYNESBORO*    FAIR      51  48  89 CALM      30.37S

$$

WVZ021-048>050-054>055-240900-
EASTERN WEST VIRGINIA PANHANDLE

CITY           SKY/WX    TMP DP  RH WIND       PRES   REMARKS
MARTINSBURG    CLEAR     47  44  90 CALM      30.36F
PETERSBURG*    CLEAR     46  43  90 CALM      30.39S

$$

VAZ036>039-050-240900-
CENTRAL FOOTHILLS

CITY           SKY/WX    TMP DP  RH WIND       PRES   REMARKS
CHARLOTTESVILL CLEAR     51  48  89 W3        30.37S
CULPEPER*      CLEAR     46  46  99 CALM      30.39S
ORANGE*        CLEAR     52  50  93 CALM      30.39S
GORDONSVILLE*  FAIR      49  48  94 CALM      30.37S
WARRENTON*     MOCLDY    52  51  96 CALM      30.37S

$$

VAZ055>057-240900-
NORTH AND CENTRAL PIEDMONT

CITY           SKY/WX    TMP DP  RH WIND       PRES   REMARKS
FREDERICKSBRG* MOCLDY    56  51  84 CALM      30.38R
STAFFORD*      PTCLDY    48  46  91 CALM      30.42S

$$

NCZ024-NYZ072-PAZ021-071-VAZ022-071-240900-
OTHER REGIONAL OBSERVATIONS

CITY           SKY/WX    TMP DP  RH WIND       PRES   REMARKS
NEW YORK CITY  CLEAR     58  35  42 W5        30.37F
PHILADELPHIA   PTCLDY    54  46  74 S7        30.38F
PITTSBURGH     CLEAR     50  42  74 CALM      30.32S
ROANOKE        CLEAR     53  50  89 CALM      30.39R
RICHMOND       PTCLDY    56  48  74 CALM      30.39S
RALEIGH        PTCLDY    60  53  77 CALM      30.38F

$$

ANZ530>537-240900-
MARINE OBSERVATIONS

STATION/POSITION TIME  TEMP    WIND        PRES
                       AIR SEA DIR/SP/G
                 (UTC) (F)     (DEG/KT/KT) (MB)
THOMAS PT LIGHT  0800   63 65  190/ 15/ 15 1029.2F
BALT KEY BRIDGE  0700   58     210/  1/  2 1028.7
LEWISETTA        0700   59 68              1028.9
SOLOMONS ISLAND  0700      68                N/A
PINEY POINT      0700          190/  7/  9   N/A

$$



USA.gov is the U.S. government's official web portal to all federal, state and local government web resources and services.